EZY68XU EGKK-LGKR

Flight info

Callsign EZY68XU
Flight time N/A
Altitude 35000
Route ODVIK Y311 DVR UL9 KONAN DCT KOK UL607 FERDI DCT REMBA DCT SPI DCT ULNOK DCT VIBOM DCT NOMBO DCT RIDAR DCT RADIZ/N0439F370 DCT DIGOT DCT SIPAL DCT RODON DCT LIMJA N732 PITAS
Aircraft A320/M-SDE3FGHIRWY/LB1

Departure

Time 2026-05-05 10:11
Airport London Gatwick Airport (EGKK)

Arrival

Time N/A
Airport Corfu Ioannis Kapodistrias International Airport (LGKR)
Time Latitude Longitude Altitude Speed Heading
2026-05-05 09:45 51.15600 -0.17562 216 ft 0 kts 329°
2026-05-05 09:57 51.15597 -0.17559 204 ft 3 kts 329°
2026-05-05 09:58 51.15574 -0.17538 212 ft 4 kts 329°
2026-05-05 09:58 51.15556 -0.17521 214 ft 4 kts 328°
2026-05-05 09:58 51.15540 -0.17500 210 ft 4 kts 262°
2026-05-05 09:58 51.15547 -0.17465 216 ft 4 kts 220°
2026-05-05 09:59 51.15565 -0.17444 204 ft 2 kts 222°
2026-05-05 09:59 51.15582 -0.17415 210 ft 4 kts 240°
2026-05-05 09:59 51.15593 -0.17376 215 ft 4 kts 255°
2026-05-05 09:59 51.15599 -0.17334 211 ft 4 kts 256°
2026-05-05 10:00 51.15604 -0.17301 214 ft 4 kts 255°
2026-05-05 10:00 51.15611 -0.17259 213 ft 4 kts 255°
2026-05-05 10:00 51.15615 -0.17235 214 ft 0 kts 257°
2026-05-05 10:03 51.15613 -0.17250 212 ft 7 kts 256°
2026-05-05 10:04 51.15590 -0.17387 215 ft 14 kts 253°
2026-05-05 10:04 51.15534 -0.17532 205 ft 15 kts 254°
2026-05-05 10:04 51.15512 -0.17685 208 ft 13 kts 255°
2026-05-05 10:04 51.15493 -0.17824 203 ft 14 kts 258°
2026-05-05 10:05 51.15473 -0.17982 212 ft 14 kts 258°
2026-05-05 10:05 51.15455 -0.18118 210 ft 12 kts 257°
2026-05-05 10:05 51.15425 -0.18264 207 ft 14 kts 220°
2026-05-05 10:05 51.15331 -0.18258 204 ft 16 kts 166°
2026-05-05 10:06 51.15210 -0.18227 204 ft 17 kts 201°
2026-05-05 10:06 51.15175 -0.18399 207 ft 20 kts 257°
2026-05-05 10:06 51.15140 -0.18663 209 ft 26 kts 258°
2026-05-05 10:06 51.15102 -0.18934 204 ft 24 kts 257°
2026-05-05 10:07 51.15068 -0.19180 208 ft 22 kts 257°
2026-05-05 10:07 51.15037 -0.19409 207 ft 20 kts 258°
2026-05-05 10:07 51.15009 -0.19614 210 ft 18 kts 257°
2026-05-05 10:07 51.14983 -0.19796 211 ft 16 kts 257°
2026-05-05 10:08 51.14953 -0.20015 209 ft 25 kts 258°
2026-05-05 10:08 51.14915 -0.20293 203 ft 26 kts 258°
2026-05-05 10:08 51.14876 -0.20573 206 ft 27 kts 257°
2026-05-05 10:08 51.14840 -0.20839 213 ft 20 kts 257°
2026-05-05 10:09 51.14812 -0.21037 215 ft 16 kts 257°
2026-05-05 10:09 51.14783 -0.21203 213 ft 16 kts 254°
2026-05-05 10:09 51.14738 -0.21398 210 ft 18 kts 213°
2026-05-05 10:09 51.14664 -0.21357 211 ft 15 kts 146°
2026-05-05 10:10 51.14552 -0.21288 212 ft 17 kts 145°
2026-05-05 10:10 51.14527 -0.21120 213 ft 20 kts 75°
2026-05-05 10:10 51.14591 -0.20657 211 ft 75 kts 77°
2026-05-05 10:10 51.14748 -0.19527 208 ft 131 kts 77°
2026-05-05 10:11 51.14970 -0.17877 315 ft 165 kts 77°
2026-05-05 10:11 51.15204 -0.16143 1109 ft 159 kts 73°
2026-05-05 10:11 51.15447 -0.14362 1730 ft 168 kts 73°
2026-05-05 10:11 51.15708 -0.12481 2116 ft 184 kts 74°
2026-05-05 10:12 51.15995 -0.10384 2462 ft 203 kts 75°
2026-05-05 10:12 51.16317 -0.08085 2756 ft 225 kts 74°
2026-05-05 10:12 51.16677 -0.05533 3204 ft 245 kts 75°
2026-05-05 10:12 51.16898 -0.02813 3977 ft 252 kts 89°
2026-05-05 10:13 51.16844 0.00001 4814 ft 257 kts 91°
2026-05-05 10:13 51.16789 0.02862 5733 ft 260 kts 90°
2026-05-05 10:13 51.16731 0.05785 6511 ft 267 kts 90°
2026-05-05 10:13 51.16671 0.08788 7230 ft 273 kts 91°
2026-05-05 10:14 51.16612 0.11833 8010 ft 277 kts 91°
2026-05-05 10:14 51.16557 0.14896 8799 ft 281 kts 90°
2026-05-05 10:14 51.16526 0.18031 9594 ft 284 kts 89°
2026-05-05 10:14 51.16529 0.21207 10341 ft 288 kts 89°
2026-05-05 10:15 51.16544 0.24412 11055 ft 291 kts 89°
2026-05-05 10:15 51.16559 0.27615 11783 ft 294 kts 89°
2026-05-05 10:15 51.16572 0.30886 12513 ft 296 kts 89°
2026-05-05 10:15 51.16584 0.34183 13205 ft 299 kts 89°
2026-05-05 10:16 51.16592 0.37518 13922 ft 302 kts 89°
2026-05-05 10:16 51.16594 0.40874 14551 ft 304 kts 89°
2026-05-05 10:16 51.16594 0.44257 15152 ft 307 kts 90°
2026-05-05 10:16 51.16593 0.47680 15751 ft 310 kts 90°
2026-05-05 10:17 51.16593 0.51176 16099 ft 324 kts 90°
2026-05-05 10:17 51.16592 0.54863 16232 ft 342 kts 90°
2026-05-05 10:17 51.16589 0.58743 16383 ft 358 kts 90°
2026-05-05 10:17 51.16584 0.62758 16807 ft 364 kts 90°
2026-05-05 10:18 51.16577 0.66819 17329 ft 368 kts 90°
2026-05-05 10:18 51.16569 0.70867 17846 ft 372 kts 91°
2026-05-05 10:18 51.16559 0.75003 18392 ft 375 kts 91°
2026-05-05 10:18 51.16548 0.79225 18857 ft 378 kts 91°
2026-05-05 10:19 51.16536 0.83424 19304 ft 380 kts 91°
2026-05-05 10:19 51.16523 0.87599 19769 ft 382 kts 92°
2026-05-05 10:19 51.16508 0.91848 20205 ft 385 kts 92°
2026-05-05 10:19 51.16490 0.96133 20613 ft 388 kts 91°
2026-05-05 10:20 51.16472 1.00457 21056 ft 391 kts 92°
2026-05-05 10:20 51.16453 1.04815 21483 ft 394 kts 92°
2026-05-05 10:20 51.16433 1.09193 21925 ft 397 kts 92°
2026-05-05 10:20 51.16407 1.13606 22363 ft 399 kts 94°
2026-05-05 10:21 51.16380 1.18040 22781 ft 402 kts 93°
2026-05-05 10:21 51.16353 1.22503 23199 ft 404 kts 93°
2026-05-05 10:21 51.16324 1.27000 23613 ft 407 kts 92°
2026-05-05 10:21 51.16290 1.31527 23950 ft 410 kts 94°
2026-05-05 10:22 51.16251 1.36073 24282 ft 412 kts 94°
2026-05-05 10:22 51.16140 1.40647 24617 ft 414 kts 95°
2026-05-05 10:22 51.15945 1.45226 24950 ft 415 kts 97°
2026-05-05 10:22 51.15699 1.49821 25285 ft 417 kts 97°
2026-05-05 10:23 51.15433 1.54439 25599 ft 420 kts 97°
2026-05-05 10:23 51.15167 1.59080 25912 ft 422 kts 97°
2026-05-05 10:23 51.14913 1.63744 26216 ft 424 kts 97°
2026-05-05 10:23 51.14671 1.68446 26526 ft 427 kts 96°
2026-05-05 10:24 51.14435 1.73175 26829 ft 429 kts 97°
2026-05-05 10:24 51.14202 1.77924 27134 ft 431 kts 97°
2026-05-05 10:24 51.13966 1.82698 27428 ft 433 kts 97°
2026-05-05 10:24 51.13723 1.87496 27724 ft 436 kts 97°
2026-05-05 10:25 51.13474 1.92313 28006 ft 438 kts 97°
2026-05-05 10:25 51.13218 1.97173 28276 ft 441 kts 97°
2026-05-05 10:25 51.12961 2.02055 28549 ft 444 kts 97°
2026-05-05 10:25 51.12702 2.06958 28832 ft 446 kts 97°
2026-05-05 10:26 51.12448 2.11818 29100 ft 448 kts 97°
2026-05-05 10:26 51.12188 2.16766 29361 ft 450 kts 97°
2026-05-05 10:26 51.11923 2.21733 29621 ft 451 kts 97°
2026-05-05 10:26 51.11652 2.26728 29870 ft 453 kts 97°
2026-05-05 10:27 51.11376 2.31735 30099 ft 455 kts 97°
2026-05-05 10:27 51.11095 2.36768 30312 ft 457 kts 97°
2026-05-05 10:27 51.10810 2.41821 30467 ft 460 kts 97°
2026-05-05 10:27 51.10521 2.46898 30658 ft 462 kts 97°
2026-05-05 10:28 51.10231 2.51991 30950 ft 462 kts 98°
2026-05-05 10:28 51.09937 2.57072 31249 ft 461 kts 98°
2026-05-05 10:28 51.09642 2.62163 31540 ft 461 kts 98°
2026-05-05 10:28 51.09104 2.67164 31819 ft 457 kts 107°
2026-05-05 10:29 51.08240 2.72021 32105 ft 456 kts 109°
2026-05-05 10:29 51.07360 2.76862 32396 ft 456 kts 109°
2026-05-05 10:29 51.06479 2.81712 32695 ft 455 kts 109°
2026-05-05 10:29 51.05602 2.86535 32978 ft 455 kts 109°
2026-05-05 10:30 51.04723 2.91368 33295 ft 454 kts 109°
2026-05-05 10:30 51.03847 2.96184 33599 ft 453 kts 110°
2026-05-05 10:30 51.02979 3.00934 33888 ft 453 kts 110°
2026-05-05 10:30 51.02096 3.05744 34132 ft 452 kts 110°
2026-05-05 10:31 51.01216 3.10541 34368 ft 452 kts 110°
2026-05-05 10:31 51.00333 3.15344 34585 ft 452 kts 110°
2026-05-05 10:31 50.99445 3.20143 34797 ft 453 kts 110°
2026-05-05 10:31 50.98550 3.24934 34906 ft 452 kts 110°
2026-05-05 10:32 50.96762 3.34457 34917 ft 449 kts 110°
2026-05-05 10:32 50.94984 3.43948 34919 ft 448 kts 110°
2026-05-05 10:33 50.93205 3.53400 34922 ft 448 kts 110°
2026-05-05 10:33 50.91429 3.62794 34924 ft 448 kts 110°
2026-05-05 10:34 50.89637 3.72246 34913 ft 447 kts 110°
2026-05-05 10:34 50.87842 3.81680 34910 ft 447 kts 111°
2026-05-05 10:35 50.86028 3.91098 34913 ft 447 kts 111°
2026-05-05 10:35 50.84206 4.00523 34902 ft 447 kts 111°
2026-05-05 10:36 50.82388 4.09924 34912 ft 447 kts 111°
2026-05-05 10:36 50.80559 4.19343 34910 ft 447 kts 111°
2026-05-05 10:37 50.78724 4.28719 34914 ft 446 kts 111°
2026-05-05 10:37 50.76884 4.38067 34929 ft 445 kts 111°
2026-05-05 10:38 50.75042 4.47392 34928 ft 444 kts 112°
2026-05-05 10:38 50.73194 4.56694 34925 ft 444 kts 112°
2026-05-05 10:39 50.71344 4.65977 34924 ft 443 kts 112°
2026-05-05 10:39 50.69478 4.75248 34905 ft 443 kts 112°
2026-05-05 10:40 50.67609 4.84503 34906 ft 442 kts 113°
2026-05-05 10:40 50.65753 4.93682 34904 ft 442 kts 112°
2026-05-05 10:41 50.63863 5.02962 34904 ft 442 kts 113°
2026-05-05 10:41 50.61976 5.12106 34897 ft 442 kts 113°
2026-05-05 10:42 50.59108 5.25897 34879 ft 442 kts 113°
2026-05-05 10:43 50.57196 5.35091 34876 ft 442 kts 113°
2026-05-05 10:43 50.55279 5.44283 34871 ft 442 kts 114°
2026-05-05 10:44 50.53355 5.53464 34878 ft 442 kts 114°
2026-05-05 10:44 50.51410 5.62628 34856 ft 443 kts 114°
2026-05-05 10:45 50.49404 5.71775 34862 ft 442 kts 115°
2026-05-05 10:45 50.47349 5.80851 34869 ft 441 kts 115°
2026-05-05 10:46 50.45292 5.89864 34867 ft 441 kts 115°
2026-05-05 10:46 50.43238 5.98931 34863 ft 441 kts 115°
2026-05-05 10:47 50.41183 6.07992 34845 ft 441 kts 115°
2026-05-05 10:47 50.39111 6.17071 34839 ft 443 kts 115°
2026-05-05 10:48 50.37028 6.26148 34836 ft 443 kts 115°
2026-05-05 10:48 50.34934 6.35230 34825 ft 444 kts 115°
2026-05-05 10:49 50.32835 6.44314 34829 ft 444 kts 115°
2026-05-05 10:49 50.30730 6.53391 34809 ft 444 kts 115°
2026-05-05 10:50 50.28971 6.60934 34829 ft 444 kts 115°
2026-05-05 10:50 50.26849 6.69994 34842 ft 444 kts 115°
2026-05-05 10:51 50.24722 6.79048 34845 ft 444 kts 116°
2026-05-05 10:51 50.22584 6.88092 34849 ft 443 kts 116°
2026-05-05 10:52 50.20441 6.97124 34836 ft 444 kts 116°
2026-05-05 10:52 50.18294 7.06148 34843 ft 443 kts 116°
2026-05-05 10:53 50.16145 7.15146 34848 ft 443 kts 116°
2026-05-05 10:53 50.13987 7.24141 34850 ft 442 kts 116°
2026-05-05 10:54 50.11825 7.33109 34866 ft 442 kts 116°
2026-05-05 10:54 50.09657 7.42081 34853 ft 442 kts 117°
2026-05-05 10:55 50.07495 7.50981 34830 ft 443 kts 117°
2026-05-05 10:55 50.05289 7.60002 34834 ft 443 kts 117°
2026-05-05 10:56 50.03097 7.68941 34837 ft 443 kts 117°
2026-05-05 10:56 50.00919 7.77832 34823 ft 443 kts 117°
2026-05-05 10:57 49.98712 7.86791 34835 ft 443 kts 117°
2026-05-05 10:57 49.96490 7.95743 34848 ft 444 kts 117°
2026-05-05 10:58 49.94255 8.04693 34850 ft 444 kts 117°
2026-05-05 10:58 49.92019 8.13610 34835 ft 443 kts 117°
2026-05-05 10:59 49.89784 8.22525 34816 ft 443 kts 117°
2026-05-05 10:59 49.87542 8.31444 34827 ft 444 kts 117°
2026-05-05 11:00 49.85214 8.40285 34826 ft 439 kts 123°
2026-05-05 11:00 49.81799 8.47928 34833 ft 429 kts 134°
2026-05-05 11:01 49.78066 8.55149 34837 ft 429 kts 134°
2026-05-05 11:01 49.74343 8.62364 34839 ft 429 kts 134°
2026-05-05 11:02 49.70632 8.69540 34842 ft 430 kts 134°
2026-05-05 11:02 49.66890 8.76749 34845 ft 430 kts 134°
2026-05-05 11:03 49.63153 8.83945 34846 ft 430 kts 134°
2026-05-05 11:03 49.59404 8.91138 34855 ft 430 kts 134°
2026-05-05 11:04 49.55652 8.98301 34861 ft 429 kts 134°
2026-05-05 11:04 49.51896 9.05458 34841 ft 429 kts 134°
2026-05-05 11:05 49.48141 9.12614 34843 ft 429 kts 134°
2026-05-05 11:05 49.44655 9.20119 34842 ft 433 kts 129°
2026-05-05 11:06 49.41352 9.27875 34844 ft 434 kts 129°
2026-05-05 11:06 49.38050 9.35629 34844 ft 434 kts 129°
2026-05-05 11:07 49.34768 9.43318 34831 ft 433 kts 129°
2026-05-05 11:07 49.31456 9.51035 34839 ft 433 kts 129°
2026-05-05 11:08 49.28138 9.58743 34842 ft 433 kts 129°
2026-05-05 11:08 49.24820 9.66430 34843 ft 432 kts 129°
2026-05-05 11:09 49.21499 9.74091 34862 ft 432 kts 129°
2026-05-05 11:09 49.18194 9.81706 34848 ft 432 kts 129°
2026-05-05 11:10 49.14867 9.89360 34848 ft 433 kts 129°
2026-05-05 11:10 49.11525 9.97018 34845 ft 433 kts 129°
2026-05-05 11:11 49.08172 10.04655 34847 ft 433 kts 129°
2026-05-05 11:11 49.04453 10.11729 34860 ft 424 kts 140°
2026-05-05 11:12 49.00286 10.18061 34838 ft 423 kts 140°
2026-05-05 11:12 48.96111 10.24388 34845 ft 423 kts 140°
2026-05-05 11:13 48.91933 10.30714 34846 ft 423 kts 140°
2026-05-05 11:13 48.87787 10.36977 34844 ft 423 kts 140°
2026-05-05 11:14 48.83608 10.43268 34847 ft 423 kts 140°
2026-05-05 11:14 48.79429 10.49552 34844 ft 423 kts 140°
2026-05-05 11:15 48.75247 10.55833 34820 ft 423 kts 140°
2026-05-05 11:15 48.71052 10.62106 34825 ft 424 kts 140°
2026-05-05 11:16 48.66841 10.68385 34825 ft 425 kts 140°
2026-05-05 11:16 48.62616 10.74660 34828 ft 426 kts 140°
2026-05-05 11:17 48.58438 10.81009 34826 ft 429 kts 134°
2026-05-05 11:17 48.54673 10.88019 34810 ft 429 kts 134°
2026-05-05 11:18 48.50917 10.95021 34812 ft 429 kts 134°
2026-05-05 11:18 48.47147 11.02002 34816 ft 430 kts 134°
2026-05-05 11:19 48.43367 11.08971 34821 ft 430 kts 134°
2026-05-05 11:19 48.39583 11.15936 34821 ft 430 kts 134°
2026-05-05 11:20 48.35813 11.22855 34824 ft 430 kts 134°
2026-05-05 11:20 48.32021 11.29806 34808 ft 431 kts 134°
2026-05-05 11:21 48.28214 11.36759 34814 ft 431 kts 134°
2026-05-05 11:21 48.24394 11.43720 34818 ft 432 kts 134°
2026-05-05 11:22 48.20570 11.50671 34820 ft 432 kts 134°
2026-05-05 11:22 48.16741 11.57610 34821 ft 432 kts 134°
2026-05-05 11:23 48.12902 11.64545 34805 ft 433 kts 134°
2026-05-05 11:23 48.09049 11.71489 34801 ft 434 kts 134°
2026-05-05 11:24 48.05193 11.78442 34800 ft 434 kts 134°
2026-05-05 11:24 48.01332 11.85389 34788 ft 434 kts 134°
2026-05-05 11:25 47.97461 11.92304 34789 ft 434 kts 134°
2026-05-05 11:25 47.93587 11.99224 34781 ft 435 kts 133°
2026-05-05 11:26 47.89726 12.06101 34785 ft 436 kts 134°
2026-05-05 11:26 47.85828 12.13013 34786 ft 436 kts 134°
2026-05-05 11:27 47.81923 12.19921 34789 ft 436 kts 134°
2026-05-05 11:27 47.78017 12.26825 34789 ft 437 kts 134°
2026-05-05 11:28 47.74102 12.33730 34791 ft 437 kts 134°
2026-05-05 11:28 47.70188 12.40616 34804 ft 437 kts 134°
2026-05-05 11:29 47.66266 12.47495 34803 ft 437 kts 134°
2026-05-05 11:29 47.62186 12.54127 34801 ft 432 kts 143°
2026-05-05 11:30 47.57360 12.59324 34804 ft 429 kts 149°
2026-05-05 11:30 47.52474 12.64378 34810 ft 429 kts 148°
2026-05-05 11:31 47.47577 12.69439 34805 ft 429 kts 148°
2026-05-05 11:31 47.42677 12.74495 34828 ft 429 kts 148°
2026-05-05 11:32 47.37772 12.79536 34830 ft 429 kts 148°
2026-05-05 11:32 47.32886 12.84546 34859 ft 430 kts 149°
2026-05-05 11:33 47.27974 12.89579 34856 ft 431 kts 149°
2026-05-05 11:33 47.23051 12.94618 34866 ft 431 kts 148°
2026-05-05 11:34 47.18121 12.99651 34880 ft 432 kts 148°
2026-05-05 11:34 47.13173 13.04671 34901 ft 432 kts 148°
2026-05-05 11:35 47.08233 13.09682 34912 ft 432 kts 148°
2026-05-05 11:35 47.03293 13.14691 34926 ft 431 kts 149°
2026-05-05 11:36 46.98379 13.19651 34927 ft 432 kts 149°
2026-05-05 11:36 46.93426 13.24641 34956 ft 432 kts 149°
2026-05-05 11:37 46.88479 13.29610 34961 ft 431 kts 149°
2026-05-05 11:37 46.83536 13.34572 34980 ft 430 kts 149°
2026-05-05 11:38 46.79430 13.38684 34973 ft 431 kts 149°
2026-05-05 11:38 46.74478 13.43624 34983 ft 431 kts 149°
2026-05-05 11:39 46.69492 13.48598 35174 ft 437 kts 149°
2026-05-05 11:39 46.66982 13.51101 35353 ft 438 kts 148°
2026-05-05 11:39 46.64461 13.53610 35546 ft 439 kts 148°
2026-05-05 11:39 46.61940 13.56111 35756 ft 439 kts 149°
2026-05-05 11:40 46.59416 13.58614 35983 ft 439 kts 149°
2026-05-05 11:40 46.56892 13.61111 36186 ft 439 kts 149°
2026-05-05 11:40 46.54360 13.63611 36358 ft 441 kts 149°
2026-05-05 11:40 46.51819 13.66119 36533 ft 441 kts 149°
2026-05-05 11:41 46.49278 13.68628 36704 ft 442 kts 149°
2026-05-05 11:41 46.46742 13.71135 36893 ft 442 kts 149°
2026-05-05 11:41 46.44200 13.73645 37015 ft 443 kts 149°
2026-05-05 11:42 46.39100 13.78665 37008 ft 443 kts 150°
2026-05-05 11:42 46.33987 13.83671 37026 ft 444 kts 149°
2026-05-05 11:43 46.28897 13.88642 37033 ft 444 kts 149°
2026-05-05 11:43 46.23775 13.93640 37035 ft 444 kts 149°
2026-05-05 11:44 46.18646 13.98638 37053 ft 445 kts 149°
2026-05-05 11:44 46.13504 14.03638 37049 ft 445 kts 149°
2026-05-05 11:45 46.08371 14.08615 37033 ft 445 kts 149°
2026-05-05 11:45 46.03229 14.13595 37030 ft 445 kts 149°
2026-05-05 11:46 45.98080 14.18574 37038 ft 446 kts 149°
2026-05-05 11:46 45.92948 14.23510 37035 ft 446 kts 150°
2026-05-05 11:47 45.87779 14.28462 37044 ft 446 kts 149°
2026-05-05 11:47 45.82617 14.33414 37029 ft 446 kts 149°
2026-05-05 11:48 45.74868 14.40823 37041 ft 446 kts 149°
2026-05-05 11:48 45.69692 14.45751 37048 ft 447 kts 149°
2026-05-05 11:49 45.64513 14.50679 37050 ft 447 kts 149°
2026-05-05 11:49 45.59367 14.55567 37050 ft 447 kts 149°
2026-05-05 11:50 45.54185 14.60478 37051 ft 447 kts 149°
2026-05-05 11:50 45.49006 14.65368 37059 ft 446 kts 149°
2026-05-05 11:51 45.43821 14.70247 37063 ft 447 kts 150°
2026-05-05 11:51 45.38656 14.75100 37053 ft 447 kts 150°
2026-05-05 11:52 45.33463 14.79982 37055 ft 447 kts 150°
2026-05-05 11:52 45.28269 14.84850 37054 ft 448 kts 149°
2026-05-05 11:53 45.23063 14.89720 37058 ft 448 kts 149°
2026-05-05 11:53 45.17845 14.94575 37048 ft 448 kts 150°
2026-05-05 11:54 45.12622 14.99427 37057 ft 449 kts 150°
2026-05-05 11:54 45.07394 15.04272 37058 ft 449 kts 150°
2026-05-05 11:55 45.02174 15.09111 37064 ft 449 kts 150°
2026-05-05 11:55 44.96982 15.13913 37066 ft 449 kts 150°
2026-05-05 11:56 44.91746 15.18733 37064 ft 449 kts 150°
2026-05-05 11:56 44.86513 15.23544 37063 ft 449 kts 150°
2026-05-05 11:57 44.81288 15.28351 37065 ft 448 kts 151°
2026-05-05 11:57 44.76062 15.33133 37058 ft 448 kts 150°
2026-05-05 11:58 44.70829 15.37901 37046 ft 448 kts 150°
2026-05-05 11:58 44.65595 15.42672 37056 ft 449 kts 150°
2026-05-05 11:59 44.60350 15.47444 37070 ft 449 kts 150°
2026-05-05 11:59 44.55116 15.52209 37071 ft 448 kts 150°
2026-05-05 12:00 44.49878 15.56962 37071 ft 448 kts 150°
2026-05-05 12:00 44.44630 15.61690 37068 ft 449 kts 150°
2026-05-05 12:01 44.39416 15.66400 37069 ft 450 kts 148°
2026-05-05 12:01 44.34523 15.71926 37074 ft 453 kts 144°
2026-05-05 12:02 44.29663 15.77518 37073 ft 453 kts 144°
2026-05-05 12:02 44.24792 15.83090 37059 ft 453 kts 144°
2026-05-05 12:03 44.19916 15.88671 37064 ft 454 kts 144°
2026-05-05 12:03 44.15036 15.94256 37076 ft 454 kts 144°
2026-05-05 12:04 44.10145 15.99836 37081 ft 454 kts 144°
2026-05-05 12:04 44.05250 16.05413 37083 ft 455 kts 144°
2026-05-05 12:05 44.00347 16.10974 37064 ft 455 kts 144°
2026-05-05 12:05 43.95433 16.16528 37062 ft 456 kts 144°
2026-05-05 12:06 43.90518 16.22081 37073 ft 456 kts 144°
2026-05-05 12:06 43.85593 16.27638 37077 ft 457 kts 144°
2026-05-05 12:07 43.80661 16.33182 37065 ft 457 kts 144°
2026-05-05 12:07 43.75718 16.38713 37062 ft 457 kts 144°
2026-05-05 12:08 43.70808 16.44211 37071 ft 457 kts 144°
2026-05-05 12:08 43.65857 16.49750 37072 ft 458 kts 144°
2026-05-05 12:09 43.60900 16.55285 37075 ft 458 kts 144°
2026-05-05 12:09 43.55939 16.60795 37090 ft 458 kts 144°
2026-05-05 12:10 43.50979 16.66303 37086 ft 458 kts 144°
2026-05-05 12:10 43.46014 16.71813 37092 ft 459 kts 144°
2026-05-05 12:11 43.41040 16.77310 37091 ft 459 kts 145°
2026-05-05 12:11 43.36055 16.82804 37083 ft 459 kts 145°
2026-05-05 12:12 43.31070 16.88298 37078 ft 460 kts 145°
2026-05-05 12:12 43.26075 16.93786 37084 ft 460 kts 145°
2026-05-05 12:13 43.21067 16.99269 37088 ft 460 kts 145°
2026-05-05 12:13 43.16058 17.04736 37087 ft 460 kts 145°
2026-05-05 12:14 43.11122 17.10263 37075 ft 462 kts 142°
2026-05-05 12:14 43.06366 17.16234 37079 ft 465 kts 140°
2026-05-05 12:15 43.01671 17.22325 37085 ft 466 kts 140°
2026-05-05 12:15 42.96909 17.28341 37092 ft 466 kts 141°
2026-05-05 12:16 42.92102 17.34286 37094 ft 466 kts 141°
2026-05-05 12:16 42.87285 17.40214 37083 ft 467 kts 141°
2026-05-05 12:17 42.82463 17.46170 37084 ft 468 kts 141°
2026-05-05 12:17 42.77634 17.52142 37089 ft 469 kts 141°
2026-05-05 12:18 42.72796 17.58108 37099 ft 469 kts 141°
2026-05-05 12:18 42.67954 17.64063 37101 ft 469 kts 141°
2026-05-05 12:19 42.63108 17.70011 37091 ft 470 kts 142°
2026-05-05 12:19 42.58273 17.75914 37095 ft 471 kts 142°
2026-05-05 12:20 42.53369 17.81886 37093 ft 472 kts 142°
2026-05-05 12:20 42.48512 17.87797 37116 ft 472 kts 142°
2026-05-05 12:21 42.43618 17.93766 37118 ft 473 kts 142°
2026-05-05 12:21 42.38726 17.99716 37095 ft 473 kts 142°
2026-05-05 12:22 42.33815 18.05661 37111 ft 474 kts 142°
2026-05-05 12:22 42.28889 18.11599 37112 ft 474 kts 142°
2026-05-05 12:23 42.23966 18.17534 37115 ft 475 kts 142°
2026-05-05 12:23 42.19037 18.23464 37106 ft 475 kts 142°
2026-05-05 12:24 42.14095 18.29387 37093 ft 475 kts 142°
2026-05-05 12:24 42.09143 18.35308 37087 ft 477 kts 142°
2026-05-05 12:25 42.05011 18.40245 37094 ft 478 kts 142°
2026-05-05 12:25 42.00029 18.46186 37112 ft 479 kts 142°
2026-05-05 12:26 41.95031 18.52137 37109 ft 480 kts 142°
2026-05-05 12:26 41.90028 18.58090 37092 ft 480 kts 142°
2026-05-05 12:27 41.85007 18.64036 37094 ft 482 kts 142°
2026-05-05 12:27 41.80003 18.69950 37100 ft 483 kts 142°
2026-05-05 12:28 41.74955 18.75907 37110 ft 483 kts 142°
2026-05-05 12:28 41.69899 18.81850 37124 ft 484 kts 142°
2026-05-05 12:29 41.64832 18.87800 37112 ft 485 kts 142°
2026-05-05 12:29 41.59750 18.93748 37111 ft 486 kts 142°
2026-05-05 12:30 41.54659 18.99691 37117 ft 487 kts 142°
2026-05-05 12:30 41.49560 19.05641 37120 ft 487 kts 142°
2026-05-05 12:31 41.44032 19.10708 37126 ft 478 kts 159°
2026-05-05 12:31 41.37896 19.13885 37120 ft 473 kts 165°
2026-05-05 12:32 41.31704 19.16894 37120 ft 474 kts 165°
2026-05-05 12:32 41.25546 19.19901 37123 ft 474 kts 165°
2026-05-05 12:33 41.19356 19.22924 37120 ft 474 kts 165°
2026-05-05 12:33 41.13160 19.25927 37123 ft 474 kts 165°
2026-05-05 12:34 41.06951 19.28935 37059 ft 475 kts 165°
2026-05-05 12:34 41.03844 19.30436 36787 ft 475 kts 165°
2026-05-05 12:34 41.00735 19.31936 36242 ft 478 kts 165°
2026-05-05 12:35 40.97583 19.33452 35364 ft 483 kts 165°
2026-05-05 12:35 40.95483 19.34462 34796 ft 486 kts 166°
2026-05-05 12:37 40.93199 19.35549 34454 ft 483 kts 166°
2026-05-05 12:37 40.92021 19.36112 34211 ft 483 kts 166°
2026-05-05 12:40 40.91533 19.36346 34124 ft 483 kts 166°
2026-05-05 12:41 40.88367 19.37872 33442 ft 483 kts 166°
2026-05-05 12:41 40.85223 19.39393 32844 ft 480 kts 165°
2026-05-05 12:41 40.82097 19.40907 32246 ft 478 kts 165°